[[{"header":{"parameterUnit":"m.s-1","parameterCategory":2,"la1":30.2991,"la2":30.254,"lo1":-89.0895,"lo2":-89.0444,"dy":0.0017,"dx":0.0017,"nx":28,"ny":28,"refTime":"2025-01-15T09:00:00:Z","depth":"0","parameterNumber":2,"parameterNumberName":"U-component_of_CURRENTS"},"data":[0,0,0,0,0,0,0,0,0,0,0,0,0,0,0,0,0,0,0,0,0,0,0,0,0,0,0,0,0,0,0,0,0,0,0,0,0,0,0,0,0,0,0,0,0,0,0,0,0,0,0,0,0,0,0,0,0,0,0.1481,0.1478,0,0.1207,0.1204,0.1201,0.1084,0.1084,0.1084,0.1084,0.0981,0.0979,0.0976,0,0,0,0,0,0,0,0,0,0,0,0,0,0.1894,0.1888,0.1482,0.1478,0.1474,0.1207,0.1204,0.1201,0.1084,0.1084,0.1084,0.1084,0.0982,0.0979,0.0976,0,0,0,0,0,0,0,0,0,0,0,0,0,0.1682,0.1886,0.1482,0.138,0.1368,0.1208,0.1204,0.12,0.1084,0.1084,0.1084,0.1084,0.0983,0.0979,0.0975,0.0948,0,0,0.0962,0.0961,0,0,0,0,0,0,0,0,0.1694,0.1667,0.1399,0.1387,0.1373,0.1176,0.1311,0.1122,0.1084,0.1197,0.1084,0.1084,0.1059,0.1049,0.1001,0.0943,0.0939,0.0962,0.0959,0.0958,0.0956,0,0,0,0,0,0,0,0.1709,0.1678,0.1378,0.1395,0.1379,0.1344,0.1314,0.1274,0.1138,0.1187,0.1177,0.1139,0.1054,0.1005,0.0998,0.0937,0.0962,0.0958,0.0956,0.0954,0.0866,0.0866,0,0,0,0,0,0,0.1732,0.1692,0.1386,0.1369,0.1531,0.1336,0.1303,0.1243,0.1134,0.1115,0.1139,0.1134,0.1012,0.1003,0.0995,0.0965,0.0958,0.0954,0.0951,0.0866,0.0866,0.0866,0,0,0,0,0,0,0.1742,0.1707,0.1397,0.1523,0.148,0.1328,0.1262,0.1237,0.1204,0.1095,0.108,0.1133,0.1012,0.1,0.0961,0.096,0.0952,0.0948,0.0865,0.0866,0.0866,0.0901,0,0,0,0,0,0,0.1754,0.1711,0.1707,0.1523,0.1473,0.132,0.126,0.1232,0.1177,0.1169,0.1085,0.1073,0.1011,0.0967,0.0957,0.0954,0.0945,0.0865,0.0865,0.0866,0.09,0.0903,0.0905,0,0,0,0,0,0.177,0.1746,0.1708,0.1673,0.1461,0.132,0.1293,0.1189,0.1178,0.1163,0.1101,0.1077,0.0962,0.0964,0.0951,0.0948,0.0865,0.0865,0.0866,0.0899,0.0902,0.0905,0,0,0,0,0,0,0.1915,0.1725,0.1681,0.16,0.1483,0.1299,0.1282,0.1212,0.1147,0.116,0.1072,0.1055,0.1019,0.0987,0.0991,0.0925,0.0913,0.0911,0.0943,0.0945,0.0948,0.0968,0.0941,0,0,0,0,0,0.1948,0.1892,0.1704,0.1654,0.1602,0.1456,0.14,0.1322,0.1221,0.1193,0.1121,0.1063,0.1006,0.0982,0.0929,0.0897,0.09,0.089,0.0893,0.0895,0.0905,0.0895,0.0898,0.0867,0.0867,0.0867,0,0,0.1988,0.1885,0.1851,0.1686,0.1598,0.1504,0.1425,0.1343,0.1272,0.1198,0.1124,0.1075,0.1002,0.0948,0.0932,0.0924,0.0913,0.0896,0.0898,0.0906,0.0896,0.0899,0.0901,0.0867,0.0867,0.0867,0,0,0.2032,0.1956,0.1918,0.1822,0.1687,0.1581,0.1568,0.1396,0.1339,0.1253,0.1184,0.1138,0.1044,0.0978,0.0937,0.0933,0.0928,0.0925,0.0949,0.0939,0.0942,0.0944,0.0984,0.099,0.0924,0.0924,0.0924,0,0.2088,0.1998,0.1893,0.1824,0.1749,0.1623,0.1553,0.1465,0.1305,0.1263,0.1248,0.1104,0.1052,0.0974,0.0963,0.0939,0.0952,0.0939,0.0943,0.0945,0.0947,0.0987,0.0993,0.0926,0.0926,0.0926,0.0925,0,0.2076,0.2013,0.199,0.1853,0.1772,0.1699,0.1544,0.1485,0.1415,0.1311,0.1235,0.115,0.1069,0.1041,0.0995,0.0971,0.0986,0.095,0.0938,0.0953,0.0994,0.0999,0.0929,0.0928,0.0927,0.0927,0,0,0.2117,0.2003,0.1986,0.1943,0.1778,0.1697,0.1613,0.1474,0.1429,0.1314,0.125,0.1147,0.1118,0.1073,0.1016,0.0998,0.1028,0.0987,0.0985,0.1033,0.1052,0.1126,0.1139,0.0994,0.0994,0.0994,0.1089,0,0.2122,0.2048,0.1966,0.1879,0.1816,0.1695,0.1618,0.1498,0.1411,0.1327,0.1241,0.1171,0.1122,0.1103,0.1074,0.1023,0.1038,0.1009,0.1025,0.1027,0.1095,0.1146,0.126,0.1358,0.1094,0.1094,0.1095,0,0.2084,0.2049,0.1988,0.1887,0.1848,0.1786,0.1663,0.1579,0.1448,0.1388,0.1314,0.1241,0.1177,0.1152,0.1105,0.109,0.1093,0.1068,0.107,0.1129,0.111,0.1293,0.1377,0.1402,0.1103,0.1102,0.1102,0,0.2127,0.2033,0.2007,0.1961,0.1837,0.1806,0.1741,0.1612,0.155,0.1448,0.1416,0.1314,0.1287,0.1241,0.1188,0.1155,0.1165,0.1109,0.119,0.1197,0.1293,0.1308,0.1407,0.1124,0.1124,0.1123,0.1123,0,0.2108,0.2067,0.2042,0.201,0.1974,0.1877,0.1825,0.174,0.165,0.159,0.1479,0.1437,0.1312,0.128,0.123,0.1245,0.121,0.1224,0.1226,0.1313,0.1327,0.135,0.1336,0.1127,0.1126,0.1126,0.1125,0,0.2097,0.2085,0.2045,0.1996,0.1983,0.1957,0.1876,0.1838,0.1765,0.1698,0.1675,0.1549,0.1518,0.1428,0.1368,0.1332,0.1319,0.1337,0.1474,0.149,0.1571,0.1555,0.1519,0.1451,0.144,0.1443,0.1445,0,0.2071,0.2066,0.2056,0.2052,0.2029,0.1998,0.1966,0.1891,0.1853,0.1762,0.1736,0.1697,0.1653,0.1615,0.1569,0.1551,0.1449,0.1633,0.1577,0.1627,0.1608,0.1454,0.1384,0.1735,0.1739,0.1742,0.1745,0,0.2023,0.2042,0.2028,0.2052,0.2047,0.2018,0.1989,0.1984,0.19,0.1871,0.1839,0.1818,0.1811,0.1821,0.1806,0.1786,0.1624,0.1705,0.171,0.1828,0.1711,0.1631,0.1643,0.1776,0.1773,0.1771,0.1769,0.1768,0.1981,0.1987,0.201,0.2018,0.2025,0.2027,0.2006,0.1998,0.1975,0.1918,0.1927,0.192,0.1998,0.1995,0.197,0.2038,0.1853,0.2028,0.2004,0.1838,0.1773,0.1882,0.203,0.2029,0.2028,0.2026,0.2025,0,0.1901,0.1937,0.1963,0.1977,0.1987,0.1997,0.199,0.1975,0.1973,0.1976,0.1969,0.2086,0.2178,0.2206,0.235,0.236,0.2162,0.2311,0.2141,0.2047,0.2157,0.2175,0.2419,0.2419,0.2419,0.2419,0.2419,0.2419,0.1859,0.1872,0.1914,0.193,0.1947,0.1926,0.1925,0.1928,0.1935,0.1966,0.2009,0.2056,0.2274,0.257,0.2685,0.2617,0.238,0.236,0.2176,0.2341,0.2311,0.2283,0.2297,0.2563,0.2563,0.2026,0.2023,0.2021]},{"header":{"parameterUnit":"m.s-1","parameterCategory":2,"la1":30.2991,"la2":30.254,"lo1":-89.0895,"lo2":-89.0444,"dy":0.0017,"dx":0.0017,"nx":28,"ny":28,"refTime":"2025-01-15T09:00:00:Z","depth":"0","parameterNumber":3,"parameterNumberName":"V-component_of_CURRENTS"},"data":[0,0,0,0,0,0,0,0,0,0,0,0,0,0,0,0,0,0,0,0,0,0,0,0,0,0,0,0,0,0,0,0,0,0,0,0,0,0,0,0,0,0,0,0,0,0,0,0,0,0,0,0,0,0,0,0,0,0,-0.2041,-0.2039,0,-0.1948,-0.1947,-0.1946,-0.1914,-0.1914,-0.1914,-0.1914,-0.1906,-0.1906,-0.1906,0,0,0,0,0,0,0,0,0,0,0,0,0,-0.2185,-0.2183,-0.2041,-0.2039,-0.2038,-0.1948,-0.1947,-0.1946,-0.1914,-0.1914,-0.1914,-0.1914,-0.1906,-0.1906,-0.1906,0,0,0,0,0,0,0,0,0,0,0,0,0,-0.2115,-0.2183,-0.2041,-0.2008,-0.2003,-0.1948,-0.1947,-0.1946,-0.1914,-0.1914,-0.1914,-0.1914,-0.1906,-0.1906,-0.1905,-0.1905,0,0,-0.1905,-0.1905,0,0,0,0,0,0,0,0,-0.2119,-0.211,-0.2014,-0.201,-0.2005,-0.1938,-0.1994,-0.1935,-0.1914,-0.1953,-0.1914,-0.1914,-0.1922,-0.192,-0.1908,-0.1905,-0.1905,-0.1905,-0.1905,-0.1904,-0.1904,0,0,0,0,0,0,0,-0.2124,-0.2114,-0.2008,-0.2012,-0.2007,-0.1995,-0.1985,-0.1983,-0.1944,-0.1949,-0.1946,-0.1928,-0.1921,-0.1908,-0.1908,-0.1904,-0.1905,-0.1904,-0.1904,-0.1904,-0.1901,-0.1901,0,0,0,0,0,0,-0.2126,-0.2118,-0.2011,-0.2005,-0.2058,-0.1992,-0.1982,-0.1964,-0.1942,-0.1936,-0.1928,-0.1927,-0.1909,-0.1908,-0.1907,-0.1899,-0.1904,-0.1904,-0.1904,-0.1901,-0.1901,-0.1901,0,0,0,0,0,0,-0.213,-0.2118,-0.2015,-0.2056,-0.2042,-0.1989,-0.1969,-0.1962,-0.1951,-0.1924,-0.1921,-0.1926,-0.1909,-0.1908,-0.1911,-0.1899,-0.1904,-0.1904,-0.1901,-0.1901,-0.1901,-0.1886,0,0,0,0,0,0,-0.2134,-0.2119,-0.212,-0.2056,-0.2039,-0.1986,-0.1969,-0.196,-0.1938,-0.1936,-0.1921,-0.192,-0.1909,-0.1911,-0.191,-0.1898,-0.1904,-0.1901,-0.1901,-0.1901,-0.1887,-0.1886,-0.1885,0,0,0,0,0,-0.214,-0.2134,-0.2121,-0.2108,-0.2037,-0.1986,-0.1977,-0.1942,-0.1938,-0.1934,-0.1928,-0.1921,-0.1911,-0.1911,-0.191,-0.1898,-0.1901,-0.1901,-0.1901,-0.1887,-0.1886,-0.1885,0,0,0,0,0,0,-0.2201,-0.2127,-0.2112,-0.2086,-0.2042,-0.1979,-0.1974,-0.1948,-0.1937,-0.1943,-0.1925,-0.1923,-0.1919,-0.1917,-0.1918,-0.1899,-0.1903,-0.1903,-0.1893,-0.1892,-0.1891,-0.1877,-0.1903,0,0,0,0,0,-0.2213,-0.2193,-0.212,-0.2107,-0.2085,-0.2034,-0.2013,-0.1985,-0.1957,-0.1951,-0.1934,-0.1926,-0.1917,-0.1914,-0.1907,-0.1902,-0.1875,-0.1893,-0.1892,-0.1892,-0.188,-0.1842,-0.1836,-0.1901,-0.1901,-0.1901,0,0,-0.223,-0.2193,-0.218,-0.212,-0.2088,-0.2045,-0.2023,-0.1991,-0.1959,-0.1955,-0.1928,-0.1926,-0.1917,-0.1904,-0.1902,-0.1902,-0.1857,-0.1892,-0.1891,-0.188,-0.1842,-0.1835,-0.1829,-0.1901,-0.1901,-0.1901,0,0,-0.2252,-0.2226,-0.221,-0.2169,-0.2114,-0.2073,-0.2064,-0.2,-0.198,-0.1951,-0.1941,-0.1931,-0.1914,-0.1898,-0.189,-0.1885,-0.1856,-0.1887,-0.1867,-0.1831,-0.1824,-0.1819,-0.1761,-0.175,-0.1884,-0.1884,-0.1884,0,-0.2278,-0.2239,-0.2201,-0.2168,-0.2128,-0.2084,-0.2045,-0.2015,-0.1961,-0.1938,-0.1944,-0.1903,-0.1904,-0.1875,-0.1873,-0.188,-0.1849,-0.187,-0.1827,-0.1821,-0.1816,-0.1758,-0.1747,-0.1883,-0.1884,-0.1884,-0.1884,0,-0.2271,-0.2238,-0.2228,-0.2165,-0.2125,-0.2088,-0.2023,-0.1994,-0.1966,-0.1924,-0.1892,-0.1888,-0.1857,-0.1861,-0.1866,-0.1827,-0.1814,-0.1831,-0.1825,-0.1808,-0.1749,-0.1737,-0.1882,-0.1883,-0.1883,-0.1883,0,0,-0.2314,-0.2235,-0.2229,-0.2191,-0.2113,-0.2073,-0.2027,-0.1955,-0.1915,-0.1883,-0.1827,-0.1825,-0.1815,-0.1807,-0.1812,-0.1788,-0.1726,-0.1793,-0.1792,-0.1727,-0.1622,-0.1565,-0.1547,-0.1735,-0.1734,-0.1732,-0.1591,0,-0.2314,-0.2257,-0.2211,-0.2146,-0.21,-0.2038,-0.1986,-0.1924,-0.1881,-0.1821,-0.1806,-0.1768,-0.1796,-0.1784,-0.1763,-0.1737,-0.1696,-0.1761,-0.1656,-0.1652,-0.1597,-0.1532,-0.1496,-0.1363,-0.1579,-0.1577,-0.1575,0,-0.2304,-0.2265,-0.2205,-0.211,-0.2083,-0.2041,-0.1945,-0.1893,-0.181,-0.1772,-0.1733,-0.1715,-0.1674,-0.1707,-0.1632,-0.1671,-0.164,-0.1622,-0.1616,-0.1559,-0.1573,-0.1419,-0.1333,-0.1379,-0.1557,-0.1558,-0.156,0,-0.2331,-0.225,-0.2204,-0.217,-0.2064,-0.2028,-0.1973,-0.1885,-0.1824,-0.1745,-0.1692,-0.1648,-0.161,-0.1577,-0.1544,-0.158,-0.1451,-0.1495,-0.1405,-0.14,-0.1345,-0.1338,-0.1282,-0.1425,-0.1425,-0.1426,-0.1426,0,-0.2325,-0.2285,-0.2217,-0.2184,-0.2117,-0.2043,-0.1966,-0.19,-0.1801,-0.1713,-0.1677,-0.1603,-0.1577,-0.1508,-0.1495,-0.1392,-0.1403,-0.137,-0.1352,-0.1338,-0.1332,-0.1352,-0.1414,-0.142,-0.1422,-0.1423,-0.1424,0,-0.2344,-0.2302,-0.224,-0.2152,-0.2124,-0.2076,-0.1957,-0.1894,-0.1804,-0.169,-0.1659,-0.1546,-0.1447,-0.1409,-0.133,-0.1308,-0.1256,-0.1204,-0.1176,-0.1157,-0.1125,-0.1188,-0.1155,-0.1196,-0.1067,-0.1065,-0.1063,0,-0.2344,-0.2319,-0.2233,-0.219,-0.215,-0.2075,-0.201,-0.1907,-0.1828,-0.1648,-0.1584,-0.1458,-0.1342,-0.1187,-0.1135,-0.105,-0.1154,-0.0969,-0.1037,-0.1084,-0.1141,-0.1249,-0.1297,-0.0951,-0.0948,-0.0946,-0.0944,0,-0.2341,-0.2318,-0.2266,-0.2191,-0.213,-0.2042,-0.1948,-0.1888,-0.1745,-0.1626,-0.1451,-0.1346,-0.1179,-0.1039,-0.0929,-0.0903,-0.1029,-0.0918,-0.0976,-0.1037,-0.1141,-0.1185,-0.1082,-0.0924,-0.0926,-0.0928,-0.0929,-0.0929,-0.2339,-0.2308,-0.2247,-0.2172,-0.2098,-0.1999,-0.1914,-0.1804,-0.1659,-0.1419,-0.1357,-0.1106,-0.0974,-0.08,-0.0814,-0.0782,-0.0882,-0.0786,-0.085,-0.0949,-0.1017,-0.0853,-0.0681,-0.0682,-0.0682,-0.0683,-0.0683,0,-0.2329,-0.2284,-0.2221,-0.2116,-0.2032,-0.199,-0.1847,-0.1733,-0.1555,-0.131,-0.1119,-0.0799,-0.0697,-0.0646,-0.0604,-0.0681,-0.082,-0.0749,-0.0909,-0.0956,-0.0786,-0.081,-0.0647,-0.0647,-0.0647,-0.0647,-0.0647,-0.0647,-0.2316,-0.2259,-0.2226,-0.2083,-0.1999,-0.184,-0.1749,-0.1568,-0.1369,-0.098,-0.0677,-0.0478,-0.0281,-0.0468,-0.0604,-0.0692,-0.0895,-0.0913,-0.1016,-0.0909,-0.092,-0.093,-0.0965,-0.0837,-0.0837,-0.1193,-0.1195,-0.1198]}],[{"header":{"parameterUnit":"m.s-1","parameterCategory":2,"la1":30.2991,"la2":30.254,"lo1":-89.0895,"lo2":-89.0444,"dy":0.0017,"dx":0.0017,"nx":28,"ny":28,"refTime":"2025-01-15T09:00:00:Z","depth":"2","parameterNumber":2,"parameterNumberName":"U-component_of_CURRENTS"},"data":[0,0,0,0,0,0,0,0,0,0,0,0,0,0,0,0,0,0,0,0,0,0,0,0,0,0,0,0,0,0,0,0,0,0,0,0,0,0,0,0,0,0,0,0,0,0,0,0,0,0,0,0,0,0,0,0,0,0,0.0619,0.062,0,0.0698,0.0699,0.0699,0.0747,0.0747,0.0748,0.0748,0.0831,0.0833,0.0834,0,0,0,0,0,0,0,0,0,0,0,0,0,0.0493,0.0495,0.0619,0.062,0.0621,0.0698,0.0699,0.07,0.0747,0.0747,0.0748,0.0748,0.083,0.0832,0.0835,0,0,0,0,0,0,0,0,0,0,0,0,0,0.0556,0.0496,0.0619,0.0655,0.0659,0.0697,0.0699,0.07,0.0747,0.0747,0.0748,0.0748,0.0829,0.0832,0.0835,0.0843,0,0,0.0844,0.0845,0,0,0,0,0,0,0,0,0.0553,0.0561,0.0648,0.0652,0.0657,0.0714,0.0685,0.0748,0.0747,0.0712,0.0748,0.0748,0.0792,0.0798,0.081,0.0847,0.085,0.0844,0.0846,0.0847,0.0848,0,0,0,0,0,0,0,0.0548,0.0557,0.0649,0.0649,0.0655,0.0661,0.0671,0.0697,0.0748,0.0715,0.0719,0.0729,0.0795,0.0808,0.0813,0.0851,0.0844,0.0846,0.0848,0.0849,0.0951,0.0952,0,0,0,0,0,0,0.0541,0.0554,0.0647,0.0652,0.0606,0.0663,0.0674,0.0694,0.0748,0.0757,0.0729,0.0731,0.0802,0.0809,0.0816,0.0872,0.0847,0.085,0.0851,0.095,0.0951,0.0952,0,0,0,0,0,0,0.0538,0.0549,0.0643,0.0604,0.0617,0.0665,0.0687,0.0696,0.0722,0.0758,0.0767,0.0749,0.0803,0.0812,0.0851,0.0874,0.0851,0.0853,0.0949,0.095,0.0951,0.0957,0,0,0,0,0,0,0.0535,0.0548,0.0565,0.0604,0.0619,0.0675,0.0687,0.0697,0.0728,0.0732,0.0778,0.0786,0.0804,0.0846,0.0854,0.0878,0.0856,0.0947,0.0949,0.0951,0.0956,0.0959,0.0961,0,0,0,0,0,0.053,0.0551,0.0566,0.0577,0.064,0.0675,0.0684,0.0718,0.0728,0.0743,0.0773,0.0785,0.0863,0.0849,0.0858,0.0883,0.0946,0.0949,0.0951,0.0954,0.0958,0.0961,0,0,0,0,0,0,0.0506,0.0559,0.0576,0.0613,0.0645,0.0684,0.0705,0.0723,0.0758,0.0766,0.0794,0.0804,0.0848,0.0863,0.0847,0.0918,0.0908,0.0912,0.0908,0.0912,0.0915,0.0921,0.0858,0,0,0,0,0,0.0508,0.054,0.0583,0.0613,0.0631,0.0668,0.0688,0.0711,0.0745,0.0762,0.0791,0.0826,0.0862,0.0884,0.0914,0.095,0.0961,0.0973,0.0976,0.0978,0.099,0.1029,0.1037,0.0959,0.0959,0.0959,0,0,0.0506,0.0541,0.0558,0.061,0.0639,0.0672,0.0682,0.0718,0.0748,0.0764,0.0813,0.0836,0.0873,0.0916,0.0937,0.0933,0.1001,0.0981,0.0983,0.0994,0.1033,0.104,0.1047,0.0961,0.0961,0.096,0,0,0.0518,0.055,0.0581,0.061,0.0658,0.0681,0.0692,0.0735,0.076,0.0802,0.0825,0.0861,0.0911,0.0945,0.0968,0.1004,0.1013,0.1014,0.1037,0.1074,0.1081,0.1087,0.1087,0.1093,0.1017,0.1017,0.1017,0,0.0515,0.0565,0.0593,0.063,0.0659,0.0685,0.0721,0.0748,0.0798,0.0823,0.0821,0.0906,0.0929,0.0993,0.1005,0.1012,0.1021,0.1018,0.1077,0.1084,0.109,0.1089,0.1095,0.1017,0.1017,0.1017,0.1017,0,0.0549,0.0592,0.0611,0.067,0.0699,0.0734,0.0773,0.0802,0.0828,0.0856,0.0917,0.0947,0.1,0.1011,0.102,0.1081,0.1067,0.1072,0.1066,0.1098,0.1094,0.1101,0.1018,0.1018,0.1018,0.1018,0,0,0.0547,0.0622,0.0633,0.0668,0.0727,0.0755,0.0802,0.0856,0.0894,0.093,0.0983,0.1035,0.1047,0.1074,0.109,0.1121,0.1156,0.1115,0.1117,0.1109,0.1215,0.1179,0.1182,0.1173,0.1175,0.1176,0.1186,0,0.0573,0.0642,0.0674,0.074,0.0781,0.0816,0.0859,0.0906,0.0942,0.0992,0.1029,0.1079,0.1073,0.1098,0.113,0.1155,0.1179,0.1152,0.1192,0.1192,0.1152,0.1192,0.1068,0.1065,0.1193,0.1194,0.1195,0,0.061,0.0652,0.0719,0.079,0.0811,0.085,0.0924,0.0965,0.1029,0.1056,0.1105,0.1126,0.1179,0.1166,0.1224,0.1206,0.1216,0.1226,0.1227,0.1201,0.117,0.106,0.1073,0.1206,0.1205,0.1204,0.1204,0,0.0612,0.069,0.0744,0.077,0.0845,0.0884,0.0926,0.0991,0.1032,0.11,0.113,0.1186,0.1219,0.1248,0.1255,0.1249,0.1304,0.1299,0.1273,0.1268,0.1176,0.1162,0.1349,0.1349,0.1349,0.1349,0.1349,0,0.0638,0.0685,0.0752,0.0785,0.0851,0.0899,0.097,0.1015,0.108,0.1134,0.1164,0.1211,0.1246,0.1271,0.1274,0.1286,0.132,0.1287,0.1282,0.1172,0.1157,0.1295,0.1289,0.1349,0.1349,0.1349,0.1349,0,0.064,0.0686,0.0753,0.0831,0.086,0.0909,0.0993,0.1036,0.1095,0.1165,0.1187,0.1242,0.129,0.13,0.1343,0.131,0.1323,0.1318,0.1165,0.1143,0.1253,0.1247,0.13,0.1299,0.1298,0.1298,0.1297,0,0.0643,0.0678,0.0776,0.0811,0.0852,0.0924,0.097,0.1043,0.1084,0.1185,0.1213,0.128,0.1331,0.1353,0.1353,0.1352,0.1337,0.116,0.1142,0.1266,0.1255,0.125,0.1246,0.1005,0.1002,0.1,0.0998,0,0.0629,0.0672,0.0715,0.0799,0.0858,0.0921,0.0991,0.1022,0.1108,0.1166,0.1243,0.1296,0.1372,0.1324,0.13,0.1263,0.115,0.1113,0.1298,0.1042,0.0991,0.0979,0.0984,0.0977,0.0979,0.0981,0.0982,0.0983,0.0598,0.0627,0.0686,0.0765,0.0835,0.0895,0.0923,0.0991,0.1052,0.1126,0.1219,0.1226,0.1251,0.119,0.117,0.1085,0.1167,0.0998,0.1004,0.1013,0.0983,0.0934,0.0901,0.0903,0.0904,0.0905,0.0906,0,0.0534,0.0585,0.0644,0.0723,0.077,0.0852,0.0914,0.0913,0.0963,0.1059,0.1141,0.0972,0.0997,0.0984,0.0889,0.0893,0.0888,0.0771,0.0737,0.0756,0.0773,0.0732,0.0583,0.0583,0.0583,0.0582,0,0,0.0492,0.0521,0.0564,0.0625,0.0703,0.0746,0.0778,0.0793,0.0826,0.0788,0.0764,0.0969,0.0947,0.0778,0.077,0.0661,0.071,0.0619,0.0867,0.0846,0.0865,0.0878,0.0832,0,0,0,0,0]},{"header":{"parameterUnit":"m.s-1","parameterCategory":2,"la1":30.2991,"la2":30.254,"lo1":-89.0895,"lo2":-89.0444,"dy":0.0017,"dx":0.0017,"nx":28,"ny":28,"refTime":"2025-01-15T09:00:00:Z","depth":"2","parameterNumber":3,"parameterNumberName":"V-component_of_CURRENTS"},"data":[0,0,0,0,0,0,0,0,0,0,0,0,0,0,0,0,0,0,0,0,0,0,0,0,0,0,0,0,0,0,0,0,0,0,0,0,0,0,0,0,0,0,0,0,0,0,0,0,0,0,0,0,0,0,0,0,0,0,0.0242,0.0243,0,0.0312,0.0312,0.0313,0.0305,0.0304,0.0303,0.0302,0.028,0.028,0.0281,0,0,0,0,0,0,0,0,0,0,0,0,0,0.0112,0.0115,0.0242,0.0243,0.0243,0.0312,0.0312,0.0313,0.0305,0.0304,0.0303,0.0302,0.028,0.028,0.0281,0,0,0,0,0,0,0,0,0,0,0,0,0,0.0174,0.0116,0.0242,0.0248,0.0249,0.0311,0.0312,0.0314,0.0306,0.0304,0.0302,0.0301,0.028,0.028,0.0281,0.0318,0,0,0.0283,0.0283,0,0,0,0,0,0,0,0,0.017,0.0179,0.0246,0.0248,0.0249,0.0298,0.0259,0.0311,0.0306,0.0284,0.0302,0.03,0.0279,0.028,0.0297,0.0317,0.0316,0.0283,0.0283,0.0284,0.0284,0,0,0,0,0,0,0,0.0166,0.0176,0.0269,0.0247,0.0249,0.0251,0.0258,0.0269,0.0288,0.0286,0.0285,0.0294,0.0279,0.0297,0.0296,0.0316,0.0283,0.0283,0.0284,0.0284,0.0302,0.0302,0,0,0,0,0,0,0.016,0.0172,0.0267,0.0271,0.0205,0.0255,0.0262,0.0284,0.029,0.029,0.0295,0.0294,0.0297,0.0296,0.0295,0.0277,0.0284,0.0284,0.0285,0.0302,0.0302,0.0302,0,0,0,0,0,0,0.0157,0.0168,0.0264,0.0222,0.0234,0.0259,0.0283,0.0286,0.0276,0.0298,0.0296,0.0278,0.0295,0.0295,0.0291,0.0278,0.0284,0.0285,0.0302,0.0302,0.0302,0.0281,0,0,0,0,0,0,0.0153,0.0167,0.0163,0.0222,0.0237,0.0287,0.0285,0.0289,0.0286,0.0283,0.0284,0.0282,0.0294,0.0291,0.0292,0.0279,0.0286,0.0301,0.0302,0.0302,0.0281,0.028,0.0279,0,0,0,0,0,0.0149,0.0164,0.0163,0.0173,0.0237,0.0288,0.0295,0.0306,0.0286,0.0288,0.0287,0.028,0.0292,0.0292,0.0293,0.028,0.0301,0.0302,0.0302,0.0282,0.028,0.0279,0,0,0,0,0,0,0.0118,0.0167,0.0166,0.0198,0.0228,0.0286,0.0284,0.0292,0.0295,0.0274,0.0287,0.0287,0.028,0.0286,0.0285,0.0287,0.0293,0.0294,0.0278,0.0276,0.0275,0.0277,0.0286,0,0,0,0,0,0.0107,0.012,0.0173,0.0192,0.0202,0.0234,0.0246,0.0256,0.0276,0.0275,0.0277,0.0277,0.0291,0.0285,0.0298,0.0299,0.0306,0.029,0.0289,0.0288,0.0291,0.0303,0.0303,0.0302,0.0302,0.0302,0,0,0.0102,0.0127,0.0135,0.0183,0.0201,0.0227,0.0236,0.025,0.0263,0.0271,0.0267,0.0273,0.0292,0.0297,0.0293,0.0293,0.029,0.0288,0.0287,0.0291,0.0303,0.0303,0.0303,0.0302,0.0302,0.0302,0,0,0.0108,0.0116,0.0129,0.0149,0.0172,0.0198,0.0195,0.0232,0.0232,0.0242,0.025,0.0252,0.0261,0.0282,0.0293,0.0294,0.0287,0.0282,0.0272,0.0283,0.0283,0.0284,0.0281,0.0281,0.0277,0.0277,0.0277,0,0.0095,0.0125,0.014,0.0156,0.0169,0.0181,0.02,0.0215,0.0243,0.0247,0.0228,0.0257,0.0262,0.0291,0.0286,0.0291,0.0287,0.0274,0.0281,0.0282,0.0282,0.028,0.028,0.0276,0.0276,0.0276,0.0276,0,0.0125,0.0129,0.0137,0.0159,0.0173,0.0189,0.0214,0.0213,0.0203,0.0224,0.0232,0.0248,0.0263,0.0263,0.0271,0.028,0.0272,0.0281,0.0283,0.0281,0.0278,0.0279,0.0274,0.0275,0.0275,0.0275,0,0,0.0156,0.0157,0.0155,0.0156,0.0171,0.0196,0.0198,0.0228,0.023,0.0234,0.0246,0.0263,0.0256,0.0269,0.0277,0.0282,0.0274,0.0271,0.0272,0.0265,0.0279,0.0283,0.0285,0.0276,0.0276,0.0276,0.0271,0,0.0174,0.0193,0.0189,0.0202,0.0219,0.0213,0.0221,0.0236,0.0237,0.0248,0.026,0.0265,0.0264,0.0254,0.0264,0.0277,0.0277,0.0274,0.0286,0.0286,0.0288,0.0287,0.0309,0.0308,0.0272,0.0272,0.0272,0,0.0217,0.0219,0.0228,0.0224,0.0228,0.0224,0.0231,0.0239,0.0252,0.0246,0.0252,0.0258,0.0269,0.0259,0.028,0.0271,0.0268,0.0277,0.0277,0.0291,0.0293,0.0307,0.0311,0.0274,0.0274,0.0274,0.0273,0,0.0255,0.0253,0.0252,0.0253,0.025,0.0233,0.0225,0.023,0.0236,0.023,0.0226,0.0249,0.024,0.0256,0.0262,0.0261,0.0282,0.0288,0.0295,0.0295,0.0324,0.0326,0.03,0.03,0.03,0.03,0.03,0,0.0303,0.0303,0.0255,0.026,0.0253,0.0235,0.0227,0.022,0.0212,0.0225,0.0212,0.0225,0.0233,0.025,0.0262,0.0279,0.028,0.0295,0.0298,0.0316,0.0317,0.0301,0.0301,0.03,0.03,0.03,0.03,0,0.0365,0.033,0.033,0.0291,0.027,0.0261,0.022,0.0232,0.0194,0.0205,0.0195,0.0199,0.0203,0.0223,0.0245,0.0269,0.0293,0.0296,0.0308,0.0313,0.0296,0.0295,0.0307,0.0307,0.0307,0.0307,0.0307,0,0.0408,0.0409,0.0351,0.0336,0.0307,0.0277,0.0269,0.0228,0.0238,0.0203,0.0225,0.0202,0.0238,0.0263,0.0286,0.0311,0.0285,0.0325,0.0338,0.0297,0.0299,0.0297,0.0296,0.0362,0.0362,0.0363,0.0363,0,0.0497,0.0452,0.0449,0.0404,0.0373,0.0367,0.0336,0.0347,0.0309,0.0311,0.0322,0.0333,0.0312,0.0349,0.0341,0.0357,0.0325,0.0334,0.0297,0.0357,0.0349,0.035,0.0348,0.0367,0.0367,0.0367,0.0366,0.0366,0.0557,0.0568,0.0531,0.0499,0.046,0.0465,0.0497,0.0488,0.0515,0.0558,0.05,0.0555,0.0505,0.0569,0.0443,0.0315,0.0371,0.0364,0.0363,0.0361,0.0369,0.0362,0.0383,0.0382,0.0382,0.0382,0.0382,0,0.0663,0.0639,0.0629,0.0606,0.0615,0.0533,0.0562,0.0642,0.0711,0.0736,0.0779,0.0784,0.0766,0.0619,0.044,0.0353,0.0332,0.0291,0.0286,0.0288,0.0288,0.0288,0.0282,0.0281,0.0279,0.0277,0,0,0.072,0.0746,0.074,0.0763,0.0722,0.0762,0.079,0.0887,0.0955,0.1008,0.1025,0.1166,0.0936,0.0811,0.0617,0.0415,0.0377,0.039,0.0504,0.0528,0.0527,0.0386,0.0397,0,0,0,0,0]}],[{"header":{"parameterUnit":"m.s-1","parameterCategory":2,"la1":30.2991,"la2":30.254,"lo1":-89.0895,"lo2":-89.0444,"dy":0.0017,"dx":0.0017,"nx":28,"ny":28,"refTime":"2025-01-15T09:00:00:Z","depth":"4","parameterNumber":2,"parameterNumberName":"U-component_of_CURRENTS"},"data":[0,0,0,0,0,0,0,0,0,0,0,0,0,0,0,0,0,0,0,0,0,0,0,0,0,0,0,0,0,0,0,0,0,0,0,0,0,0,0,0,0,0,0,0,0,0,0,0,0,0,0,0,0,0,0,0,0,0,0.0049,0.005,0,0.0119,0.012,0.012,0.0161,0.0161,0.0161,0.0161,0.0241,0.0243,0.0245,0,0,0,0,0,0,0,0,0,0,0,0,0,-0.0035,-0.0034,0.0049,0.005,0.0051,0.0119,0.012,0.0121,0.0161,0.0161,0.0161,0.0161,0.024,0.0242,0.0245,0,0,0,0,0,0,0,0,0,0,0,0,0,0.0015,-0.0034,0.0049,0.0079,0.0082,0.0118,0.012,0.0121,0.0161,0.0161,0.0161,0.0161,0.0239,0.0242,0.0245,0.026,0,0,0.0254,0.0256,0,0,0,0,0,0,0,0,0.0012,0.0018,0.0074,0.0077,0.0081,0.0131,0.0119,0.0168,0.0161,0.0131,0.0161,0.0161,0.0204,0.021,0.0223,0.0264,0.0267,0.0255,0.0256,0.0258,0.0259,0,0,0,0,0,0,0,0.0008,0.0015,0.0077,0.0074,0.0079,0.0093,0.01,0.0128,0.0167,0.0134,0.0137,0.0144,0.0207,0.022,0.0226,0.0268,0.0255,0.0257,0.0259,0.026,0.0359,0.036,0,0,0,0,0,0,-0.0002,0.0012,0.0075,0.0079,0.0045,0.0094,0.0103,0.0115,0.0166,0.0174,0.0144,0.0145,0.0215,0.0222,0.0229,0.0267,0.0258,0.0261,0.0262,0.0358,0.0359,0.036,0,0,0,0,0,0,-0.0004,0.0003,0.0072,0.0046,0.0056,0.0095,0.0109,0.0116,0.0133,0.0173,0.0181,0.0153,0.0216,0.0224,0.026,0.027,0.0262,0.0265,0.0357,0.0358,0.0359,0.0332,0,0,0,0,0,0,-0.0006,0.0002,0.0007,0.0046,0.0057,0.0095,0.0109,0.0117,0.0137,0.014,0.0184,0.0192,0.0216,0.0255,0.0263,0.0274,0.0267,0.0356,0.0358,0.0359,0.0332,0.0333,0.0333,0,0,0,0,0,-0.001,-0.0004,0.0006,0.0014,0.0062,0.0095,0.0102,0.013,0.0137,0.0146,0.0177,0.0191,0.0271,0.0258,0.0267,0.0279,0.0355,0.0357,0.0359,0.0332,0.0333,0.0333,0,0,0,0,0,0,-0.0038,0.0002,0.0014,0.0032,0.006,0.0101,0.011,0.0129,0.0161,0.0163,0.0199,0.0209,0.0243,0.0267,0.0252,0.0314,0.0316,0.032,0.0293,0.0294,0.0294,0.0284,0.0269,0,0,0,0,0,-0.0043,-0.0029,0.0011,0.0024,0.0036,0.0072,0.0087,0.0108,0.0141,0.0155,0.0187,0.0223,0.0258,0.0279,0.031,0.0343,0.0341,0.0358,0.0358,0.0358,0.0358,0.0366,0.0366,0.0366,0.0366,0.0366,0,0,-0.0051,-0.0028,-0.002,0.0018,0.0041,0.0063,0.0082,0.0105,0.0126,0.0159,0.0192,0.0222,0.0266,0.0302,0.0321,0.0324,0.0354,0.0361,0.036,0.036,0.0368,0.0368,0.0367,0.0367,0.0367,0.0367,0,0,-0.0059,-0.004,-0.0029,-0.0006,0.0028,0.0053,0.0059,0.0101,0.012,0.0156,0.0185,0.0219,0.0273,0.0306,0.0329,0.0351,0.0352,0.0366,0.0363,0.037,0.037,0.0369,0.0345,0.0342,0.037,0.0369,0.0369,0,-0.0071,-0.0049,-0.0022,-0.0005,0.0013,0.0047,0.0064,0.009,0.0139,0.0154,0.0164,0.024,0.0275,0.032,0.0333,0.035,0.0344,0.0354,0.0368,0.0368,0.0368,0.0343,0.0341,0.0368,0.0369,0.0369,0.0369,0,-0.0065,-0.0049,-0.0043,-0.0008,0.0013,0.0032,0.0071,0.0093,0.0117,0.0146,0.0189,0.0234,0.0279,0.0299,0.0326,0.0353,0.0342,0.036,0.036,0.0366,0.0339,0.0337,0.0367,0.0367,0.0368,0.0368,0,0,-0.0082,-0.0046,-0.0043,-0.003,0.0014,0.0033,0.006,0.0098,0.0115,0.0157,0.0179,0.0244,0.0263,0.0291,0.0326,0.0342,0.0333,0.0353,0.0354,0.0314,0.0324,0.0325,0.0322,0.0352,0.0352,0.0353,0.0296,0,-0.0083,-0.006,-0.0038,-0.0015,0.0002,0.0035,0.0058,0.0093,0.0125,0.0152,0.0194,0.023,0.0262,0.0283,0.0303,0.0331,0.0331,0.0345,0.0337,0.0336,0.0325,0.0322,0.0353,0.0294,0.0294,0.0294,0.0293,0,-0.0079,-0.0064,-0.0046,-0.0016,-0.0006,0.0012,0.0049,0.0075,0.0118,0.0139,0.0175,0.0206,0.0242,0.0264,0.0293,0.0299,0.0308,0.0322,0.032,0.0332,0.0335,0.0296,0.029,0.029,0.029,0.0291,0.0291,0,-0.0095,-0.0066,-0.0055,-0.0043,-0.0005,0.0006,0.0029,0.0071,0.0097,0.0129,0.0147,0.0184,0.0209,0.0227,0.0264,0.0275,0.0279,0.0296,0.0296,0.0294,0.0319,0.0321,0.0303,0.0303,0.0303,0.0304,0.0304,0,-0.0097,-0.0088,-0.0063,-0.0056,-0.004,-0.0009,0.0015,0.0039,0.0078,0.0113,0.0139,0.0166,0.0206,0.0222,0.0241,0.0257,0.0256,0.0287,0.0286,0.0307,0.0308,0.0316,0.0318,0.0301,0.0302,0.0302,0.0303,0,-0.0112,-0.0096,-0.0084,-0.0057,-0.0046,-0.0035,0.001,0.0034,0.0063,0.0105,0.0115,0.0152,0.0168,0.019,0.0214,0.0233,0.0243,0.0248,0.024,0.024,0.025,0.0251,0.0229,0.0229,0.0228,0.0228,0.0228,0,-0.0115,-0.0113,-0.0092,-0.008,-0.0068,-0.0042,-0.0016,0.0024,0.0055,0.0105,0.0125,0.0144,0.0171,0.0178,0.0203,0.0204,0.0224,0.0213,0.0261,0.0244,0.0245,0.0247,0.0249,0.0228,0.0228,0.0228,0.0227,0,-0.0128,-0.0126,-0.0116,-0.0093,-0.007,-0.0041,-0.0001,0.0018,0.0074,0.0099,0.0139,0.0158,0.0171,0.0181,0.0181,0.0193,0.0213,0.0211,0.0212,0.0257,0.0242,0.0244,0.0246,0.0227,0.0227,0.0227,0.0227,0,-0.0138,-0.0136,-0.0121,-0.0099,-0.0072,-0.0038,-0.0019,0.0029,0.0061,0.0123,0.0133,0.0153,0.0172,0.0174,0.0178,0.0183,0.0197,0.0211,0.0212,0.0213,0.0241,0.0223,0.0194,0,0,0,0,0,-0.0135,-0.0128,-0.0119,-0.0093,-0.0068,-0.0048,-0.0001,0.0022,0.0072,0.0105,0.0125,0.0141,0.0162,0.016,0.0165,0.0167,0.0186,0.0173,0.02,0.0222,0.0223,0.0261,0,0,0,0,0,0,-0.0131,-0.0123,-0.0121,-0.0091,-0.0072,-0.0037,-0.0008,0.0023,0.0045,0.0091,0.0091,0.0137,0.0138,0.0149,0.0158,0.0162,0.0182,0.0188,0.0189,0.0221,0.0222,0.0223,0.0262,0,0,0,0,0]},{"header":{"parameterUnit":"m.s-1","parameterCategory":2,"la1":30.2991,"la2":30.254,"lo1":-89.0895,"lo2":-89.0444,"dy":0.0017,"dx":0.0017,"nx":28,"ny":28,"refTime":"2025-01-15T09:00:00:Z","depth":"4","parameterNumber":3,"parameterNumberName":"V-component_of_CURRENTS"},"data":[0,0,0,0,0,0,0,0,0,0,0,0,0,0,0,0,0,0,0,0,0,0,0,0,0,0,0,0,0,0,0,0,0,0,0,0,0,0,0,0,0,0,0,0,0,0,0,0,0,0,0,0,0,0,0,0,0,0,0.0555,0.0555,0,0.058,0.058,0.0581,0.0597,0.0597,0.0597,0.0597,0.0616,0.0616,0.0616,0,0,0,0,0,0,0,0,0,0,0,0,0,0.0516,0.0516,0.0555,0.0555,0.0556,0.058,0.058,0.0581,0.0596,0.0597,0.0597,0.0597,0.0615,0.0616,0.0616,0,0,0,0,0,0,0,0,0,0,0,0,0,0.0536,0.0517,0.0555,0.0566,0.0567,0.058,0.058,0.0581,0.0596,0.0597,0.0597,0.0597,0.0615,0.0616,0.0617,0.0618,0,0,0.0619,0.0619,0,0,0,0,0,0,0,0,0.0535,0.0538,0.0564,0.0565,0.0567,0.0585,0.0573,0.0593,0.0596,0.0586,0.0597,0.0597,0.0605,0.0606,0.0611,0.0619,0.062,0.0619,0.0619,0.0619,0.0619,0,0,0,0,0,0,0,0.0534,0.0537,0.0565,0.0565,0.0566,0.0568,0.0571,0.0577,0.0594,0.0587,0.0588,0.059,0.0605,0.061,0.0612,0.062,0.0619,0.0619,0.062,0.062,0.0651,0.0651,0,0,0,0,0,0,0.053,0.0535,0.0564,0.0566,0.0551,0.0569,0.0572,0.0579,0.0594,0.0597,0.059,0.0591,0.0609,0.0611,0.0612,0.0636,0.0619,0.062,0.062,0.065,0.0651,0.0651,0,0,0,0,0,0,0.0529,0.0533,0.0563,0.0551,0.0555,0.057,0.0577,0.058,0.0593,0.0597,0.0599,0.0601,0.0609,0.0611,0.063,0.0636,0.062,0.0621,0.065,0.065,0.0651,0.067,0,0,0,0,0,0,0.0528,0.0533,0.054,0.0551,0.0555,0.0577,0.0577,0.058,0.0593,0.0595,0.0607,0.0609,0.061,0.0629,0.0631,0.0637,0.0621,0.0649,0.065,0.0651,0.0669,0.0672,0.0674,0,0,0,0,0,0.0527,0.0537,0.0541,0.0544,0.0564,0.0577,0.058,0.0591,0.0594,0.0602,0.0614,0.0609,0.0635,0.0631,0.0632,0.0638,0.0649,0.065,0.0651,0.0668,0.0671,0.0674,0,0,0,0,0,0,0.0526,0.054,0.0544,0.0558,0.0569,0.058,0.0589,0.0595,0.0611,0.0614,0.0619,0.0621,0.0638,0.0637,0.0632,0.0649,0.0639,0.0641,0.0652,0.0655,0.0657,0.066,0.0622,0,0,0,0,0,0.0528,0.0539,0.0551,0.0563,0.0569,0.058,0.0588,0.0595,0.0607,0.0615,0.0625,0.0633,0.0642,0.0648,0.0655,0.0668,0.0661,0.0671,0.0673,0.0675,0.0679,0.0676,0.0678,0.0654,0.0654,0.0654,0,0,0.0531,0.054,0.0546,0.0564,0.0573,0.0583,0.0586,0.0599,0.0609,0.0614,0.0635,0.0643,0.0647,0.0662,0.0669,0.0664,0.0678,0.0676,0.0678,0.068,0.0677,0.0679,0.0681,0.0655,0.0655,0.0655,0,0,0.0536,0.055,0.0558,0.0568,0.0583,0.059,0.0595,0.0611,0.0621,0.0641,0.0645,0.0659,0.0675,0.0679,0.0682,0.07,0.069,0.0702,0.0717,0.0714,0.0716,0.0718,0.071,0.0711,0.0703,0.0703,0.0703,0,0.0538,0.0551,0.0563,0.0573,0.0582,0.0594,0.0603,0.0615,0.0636,0.0646,0.065,0.0676,0.068,0.0694,0.0705,0.0704,0.0703,0.0706,0.0717,0.0718,0.0719,0.0712,0.0712,0.0704,0.0704,0.0704,0.0704,0,0.0546,0.0559,0.0566,0.0582,0.0593,0.0605,0.0619,0.0633,0.0646,0.0659,0.0682,0.0692,0.0707,0.071,0.0716,0.0729,0.0725,0.0719,0.0709,0.0723,0.0714,0.0714,0.0706,0.0706,0.0705,0.0705,0,0,0.0538,0.0566,0.0568,0.0578,0.0599,0.0609,0.0625,0.0644,0.0657,0.0679,0.0695,0.0717,0.0728,0.0732,0.0738,0.0742,0.075,0.0742,0.0741,0.0733,0.0746,0.0697,0.0692,0.075,0.075,0.075,0.0736,0,0.0539,0.0559,0.0572,0.0591,0.0602,0.0619,0.0636,0.0656,0.0671,0.069,0.0704,0.0722,0.0734,0.0743,0.0751,0.0749,0.0753,0.0755,0.0735,0.0734,0.0688,0.0691,0.0751,0.0736,0.0736,0.0736,0.0736,0,0.0535,0.0551,0.0572,0.0599,0.0606,0.0624,0.065,0.0667,0.0692,0.0703,0.0723,0.0734,0.075,0.0752,0.076,0.0764,0.0762,0.0758,0.0757,0.0704,0.0685,0.072,0.0736,0.0736,0.0736,0.0736,0.0736,0,0.0518,0.0547,0.0566,0.0576,0.0611,0.0627,0.0649,0.0677,0.0691,0.0713,0.0719,0.0741,0.075,0.0753,0.076,0.076,0.0761,0.0752,0.0704,0.07,0.0741,0.0739,0.0754,0.0754,0.0754,0.0754,0.0754,0,0.0507,0.0521,0.0565,0.0575,0.061,0.0631,0.0664,0.0683,0.0701,0.0724,0.0733,0.074,0.0754,0.0758,0.0758,0.0733,0.0758,0.0705,0.0692,0.0749,0.0749,0.0741,0.0739,0.0753,0.0753,0.0753,0.0754,0,0.0484,0.051,0.0536,0.0582,0.0606,0.0632,0.0679,0.0697,0.071,0.0733,0.0738,0.0742,0.0747,0.0754,0.0753,0.0722,0.0704,0.0691,0.0754,0.0745,0.0644,0.0644,0.0619,0.0617,0.0616,0.0615,0.0613,0,0.0472,0.0485,0.0548,0.0581,0.0609,0.0653,0.0689,0.0709,0.0721,0.0736,0.0741,0.0745,0.0754,0.0705,0.0711,0.0688,0.0684,0.0654,0.0647,0.064,0.063,0.0632,0.0634,0.0611,0.061,0.061,0.061,0,0.0459,0.0487,0.0518,0.0591,0.0638,0.0682,0.0726,0.0722,0.0745,0.0748,0.0728,0.0704,0.0704,0.0683,0.067,0.0656,0.0657,0.0637,0.064,0.0633,0.0629,0.0621,0.0625,0.0604,0.0605,0.0605,0.0606,0,0.0463,0.0486,0.0548,0.0608,0.0668,0.0714,0.0723,0.0734,0.0739,0.0732,0.0728,0.0724,0.0724,0.0667,0.0658,0.0634,0.0616,0.0576,0.0581,0.0587,0.0579,0.0569,0.0513,0,0,0,0,0,0.0482,0.0524,0.057,0.0643,0.0694,0.0739,0.0761,0.0756,0.0759,0.0738,0.0726,0.0723,0.0675,0.0654,0.0622,0.0639,0.0627,0.0594,0.0588,0.0573,0.058,0.0571,0,0,0,0,0,0,0.0506,0.0557,0.0577,0.0666,0.0718,0.0781,0.0795,0.0787,0.0758,0.0746,0.0724,0.0693,0.0662,0.0717,0.0624,0.0616,0.0594,0.0578,0.0576,0.057,0.0576,0.0581,0.0574,0,0,0,0,0]}]]